Location: Sternwarte auf dem Internationalen Platz Vogelsang IP
(50.5721°N, 6.4398°E)
Time: 22:52:20
(UTC+01:00)

Transit 2A Rocket - Pass Details

Date: 18 December 2025
Orbit: 581 x 903 km, 66.7° (Epoch: 12 January)

Event Time Altitude Azimuth Distance (km) Brightness Sun altitude
Rises 11:14:52 0° 286° (WNW) 3,464 8.1 14.1°
Reaches altitude 10° 11:18:10 10° 304° (NW) 2,560 7.3 14.3°
Maximum altitude 11:22:16 19° 347° (NNW) 2,033 6.7 14.5°
Drops below altitude 10° 11:26:25 10° 31° (NNE) 2,591 7.4 14.7°
Sets 11:29:47 0° 49° (NE) 3,520 8.2 14.8°
